Theta_e
346 346 346 347 347 347 347 347 348 347 348 349 349 349 351 350 350 350 350 349 348 351 351 350 349 349 347 348 347 346 346 345 345 345 345 345 345 345 346 345 345 345 342 339 337 339 342 343 344 344 343 342 342 342 342 341 340 338 338 338 339 339
344 344 345 346 347 347 347 347 348 348 349 349 349 349 350 351 350 351 349 350 350 349 348 348 349 347 348 347 346 345 346 346 346 345 345 344 345 344 345 345 345 343 340 338 336 340 342 343 343 343 343 342 342 342 342 341 340 338 338 340 340 341
344 345 345 344 345 346 347 347 348 348 348 349 349 350 350 350 350 349 349 349 348 348 347 347 348 347 347 346 346 346 346 346 346 346 344 345 344 344 344 343 342 340 338 335 342 339 338 339 343 343 343 344 343 342 341 341 341 340 339 340 341 342
344 344 344 344 344 345 346 347 346 347 347 348 349 348 350 349 348 348 348 348 347 347 346 346 346 346 345 347 346 345 344 345 345 345 343 344 342 342 340 340 339 338 339 341 342 340 336 337 339 344 346 344 342 341 341 341 340 340 341 339 340 341
344 343 343 343 344 344 344 345 344 345 346 347 347 347 347 347 347 347 347 347 345 345 345 345 346 347 347 347 347 347 348 347 347 346 343 344 344 343 345 344 345 344 344 343 341 341 340 338 340 340 341 342 342 342 341 342 341 340 341 343 343 341
343 343 343 342 343 343 343 342 342 343 345 345 345 345 345 346 345 345 345 345 344 344 346 346 346 347 347 347 346 346 347 347 347 346 345 345 343 344 344 343 343 343 343 344 342 342 342 340 338 339 340 341 341 342 341 341 341 341 342 343 345 341
341 341 342 345 344 344 343 343 343 343 342 343 344 344 344 344 344 344 344 345 344 343 344 345 346 347 346 346 345 346 346 347 347 346 346 345 345 345 345 344 342 342 343 343 342 342 341 342 340 337 339 340 341 340 342 342 342 342 343 343 343 341
340 341 342 344 342 342 342 342 342 343 343 343 342 342 342 345 344 346 345 346 345 344 345 344 345 344 345 346 346 346 348 347 347 346 347 346 344 344 344 344 345 344 342 341 338 340 340 341 341 340 337 339 340 341 341 341 341 342 343 344 343 343
340 340 341 341 340 341 341 341 343 343 342 344 343 343 344 345 344 346 347 347 348 345 345 345 344 344 346 345 346 346 348 348 347 347 346 345 346 345 345 345 345 344 344 343 342 341 340 341 341 342 339 339 340 341 341 341 340 341 342 342 343 342
340 340 340 340 339 341 339 339 342 342 343 345 344 344 345 345 346 348 348 347 347 346 345 345 345 346 344 345 345 346 346 346 346 346 347 346 345 345 344 344 345 345 343 343 342 342 341 340 340 341 340 339 340 341 342 340 339 339 340 341 342 343
340 341 340 338 339 339 341 340 341 343 344 344 345 346 345 345 346 345 346 346 345 345 345 344 345 344 344 344 343 342 342 344 344 345 346 345 346 345 344 343 343 342 343 342 342 343 341 340 339 338 341 339 340 341 341 342 340 339 338 339 340 342
340 341 340 339 339 338 340 340 342 343 343 344 345 345 345 345 346 345 344 345 345 346 346 346 344 344 343 343 343 342 343 342 342 342 343 342 342 343 342 341 343 343 343 342 342 343 343 342 341 340 341 339 341 341 340 342 341 341 339 339 340 341
341 342 341 340 339 339 341 341 341 342 343 344 345 345 344 345 345 344 344 345 345 344 345 344 345 343 342 342 341 341 341 341 342 341 341 340 340 341 342 342 341 342 342 342 341 342 342 342 342 342 342 340 342 340 340 341 342 341 341 340 338 339
341 341 341 341 341 340 341 342 343 344 345 345 346 347 346 346 345 344 345 344 344 344 344 344 342 342 342 341 340 340 340 340 341 339 340 340 339 340 340 340 340 338 338 339 339 341 340 340 341 342 341 342 341 341 341 341 341 340 341 341 340 339
341 341 342 342 342 341 342 343 344 345 346 347 345 346 348 345 345 345 344 344 343 343 343 342 342 340 341 340 340 339 339 339 339 340 339 340 339 338 339 339 339 338 338 338 338 338 338 339 339 340 340 341 340 339 341 341 341 340 339 341 341 339
342 342 342 342 343 343 343 346 345 344 345 345 346 345 346 346 346 345 345 345 343 343 343 343 342 341 340 340 340 339 339 339 339 340 340 339 339 338 338 338 338 338 335 336 337 337 338 337 337 338 340 340 340 339 340 341 340 340 341 342 340 339
340 341 342 342 343 343 344 344 345 344 343 344 344 347 347 346 346 346 346 345 344 343 343 343 343 342 340 339 340 339 340 340 340 339 339 341 339 339 338 337 337 338 337 335 336 335 336 336 336 337 338 338 339 339 338 340 341 340 340 338 339 339
342 342 343 342 343 343 344 343 344 344 344 345 346 346 347 347 346 345 345 344 343 342 343 343 343 341 340 340 340 340 340 340 339 339 339 339 339 339 338 338 338 338 338 336 335 334 335 335 335 335 336 337 337 337 337 338 339 338 338 338 338 336
342 343 343 343 343 343 343 343 343 344 345 345 346 346 346 346 344 344 343 343 342 343 343 343 342 341 339 340 340 340 339 339 339 338 338 337 337 338 338 338 337 337 338 337 335 334 334 334 333 333 333 335 336 336 336 337 337 337 336 336 337 336
341 342 343 342 342 341 342 342 341 343 343 343 344 344 345 343 344 343 343 342 342 343 343 342 341 341 340 340 340 340 339 339 338 337 337 335 335 337 335 335 336 336 336 336 337 335 334 334 333 334 333 334 335 336 335 334 334 335 335 336 336 337
341 341 341 340 340 340 339 340 341 341 341 344 344 342 342 343 345 344 343 343 343 343 343 342 342 342 341 340 340 340 338 338 338 337 337 335 336 335 335 335 334 335 334 333 334 336 335 334 330 329 332 332 333 335 335 334 334 334 335 335 336 335
341 341 342 342 342 343 343 343 343 342 343 343 342 341 341 344 345 345 345 343 343 343 342 342 341 341 340 340 339 339 338 338 338 337 335 336 336 336 335 334 334 332 335 333 331 335 335 333 327 325 325 326 329 332 333 334 333 333 334 334 335 335
341 341 342 343 343 343 343 344 344 343 343 341 343 344 343 343 343 343 344 343 342 341 341 340 340 339 338 338 337 337 336 337 336 335 335 335 337 336 336 335 335 334 331 334 333 335 335 334 327 330 330 325 323 323 328 329 332 333 333 334 334 333
340 342 343 345 344 345 344 343 343 344 343 342 340 341 342 342 341 341 339 339 340 340 338 338 338 337 337 336 336 335 335 334 334 335 334 333 335 334 335 336 337 335 333 329 330 333 338 336 332 325 319 320 324 321 318 323 327 331 333 333 333 333
340 341 343 344 345 344 343 342 341 341 342 341 340 339 338 336 338 338 338 337 337 337 337 336 336 336 335 335 335 334 334 333 333 334 333 332 333 333 333 334 334 334 332 331 328 331 334 337 334 332 325 321 319 316 319 324 326 327 332 331 332 333
340 341 342 343 344 344 343 342 339 336 335 335 334 335 333 333 335 335 334 336 336 336 335 335 334 334 333 333 333 332 333 332 332 332 332 332 332 333 332 333 332 332 332 333 331 329 328 334 336 334 332 330 328 324 324 325 324 319 333 332 332 332
341 342 342 343 343 343 342 341 341 339 338 337 333 333 334 335 335 335 335 334 334 334 333 332 332 331 331 331 331 331 330 330 330 330 331 332 331 331 332 332 332 332 331 331 332 327 327 329 333 335 334 332 328 327 328 325 321 324 320 327 330 330
340 341 342 343 343 345 341 339 338 338 337 336 335 332 333 334 335 334 334 334 333 331 331 330 330 330 330 330 331 330 330 330 330 330 330 330 330 331 331 332 333 333 332 332 332 330 327 328 327 328 334 329 326 326 326 328 327 324 322 320 322 329
338 339 340 341 340 339 339 339 338 337 334 334 334 334 334 333 333 334 332 331 331 330 330 330 329 329 330 330 330 331 330 330 330 331 330 330 331 331 331 331 330 330 330 331 332 331 330 329 330 328 329 329 329 324 324 324 327 324 320 320 320 323
335 335 336 336 337 337 337 337 335 335 333 332 333 333 333 332 331 331 330 329 329 328 328 330 330 330 330 330 330 331 331 331 331 331 332 331 332 332 331 331 331 331 332 331 332 331 330 330 329 331 330 328 325 326 324 321 322 321 322 323 320 322
332 333 334 334 335 335 335 335 334 334 333 332 331 331 330 328 328 329 328 327 327 327 329 328 329 329 329 329 330 331 331 331 331 331 332 331 331 331 332 332 332 332 331 333 333 332 332 332 331 328 329 329 326 326 324 322 321 322 322 320 320 320
330 330 331 332 333 332 332 332 333 331 329 330 330 328 326 325 326 326 326 325 326 326 327 328 328 328 328 329 329 330 331 330 330 331 330 331 331 331 331 332 332 332 332 332 332 331 330 331 330 330 326 330 329 329 328 327 326 325 320 321 321 321
328 329 330 331 331 331 331 331 329 330 330 330 328 327 327 326 326 325 325 325 325 324 326 326 325 326 328 328 328 328 329 328 328 329 328 329 330 330 331 331 331 330 331 330 332 330 328 329 330 327 328 331 331 329 326 332 332 328 327 326 323 321
327 329 329 329 329 328 328 329 330 330 329 328 327 327 326 325 326 326 325 325 325 324 324 325 325 325 327 327 327 327 326 327 327 327 327 327 327 329 330 330 330 330 330 331 332 331 331 329 330 331 332 330 330 329 330 332 330 329 326 325 323 323
326 327 328 327 327 327 327 328 328 329 328 328 326 327 326 326 326 325 325 324 324 325 325 325 325 326 327 326 324 325 325 325 324 324 324 324 325 326 327 328 329 330 330 331 331 330 331 330 328 329 330 330 327 330 331 330 331 328 330 327 326 325
326 327 327 326 326 327 327 327 328 327 327 327 327 327 326 325 325 325 324 324 324 323 323 324 325 325 324 323 323 323 323 323 322 322 321 321 323 324 326 327 329 329 328 330 329 330 331 330 329 329 329 330 330 330 332 332 330 329 328 329 328 327
325 325 325 325 325 326 326 326 325 326 326 325 324 323 322 322 323 324 324 323 323 321 321 321 321 322 321 321 320 320 320 319 319 319 319 319 321 323 325 327 327 327 326 328 328 329 330 330 329 329 328 329 331 331 331 332 332 330 329 330 330 329
Wind_Speed
8 9 9 9 8 9 10 12 11 11 11 11 11 10 10 10 10 10 9 9 7 5 5 5 4 4 4 3 3 3 3 3 3 4 5 6 6 6 7 6 7 8 9 6 4 3 4 4 6 7 8 9 10 6 4 3 3 3 3 3 4 3
8 9 9 7 7 7 8 8 8 9 9 9 10 9 8 7 7 7 8 6 4 4 3 3 3 3 2 2 3 3 1 3 2 4 4 5 6 5 6 7 8 9 7 5 2 2 3 4 5 8 8 9 7 4 4 4 4 3 3 3 4 5
9 9 9 8 7 7 8 7 7 8 7 7 7 7 6 6 5 5 4 4 3 3 3 2 2 2 2 2 3 5 4 4 3 4 5 5 6 5 6 6 6 6 5 3 1 2 2 3 4 8 8 7 4 4 4 4 4 3 4 3 4 7
9 9 8 7 7 7 7 6 6 6 6 6 6 5 5 4 4 4 3 2 2 2 2 2 2 3 3 2 2 1 3 3 3 3 6 3 3 3 3 2 4 2 3 1 1 1 2 2 3 4 4 4 4 4 5 4 4 4 3 4 4 9
9 8 8 7 7 6 6 6 5 5 5 4 5 4 3 3 3 3 2 2 2 1 1 1 1 1 2 2 2 3 1 2 3 3 2 3 3 2 2 2 1 0 1 1 1 0 1 2 2 3 3 4 4 5 5 5 4 4 4 4 4 8
8 8 8 7 7 6 6 6 6 5 5 5 4 4 3 3 2 2 1 1 1 1 0 0 1 2 2 2 3 3 2 2 2 2 1 3 3 2 2 2 2 2 1 1 0 0 1 2 2 2 2 3 4 5 5 5 5 5 4 4 5 10
8 8 8 7 7 6 6 6 6 5 5 4 4 4 3 2 2 2 1 1 1 1 0 1 1 2 2 2 3 3 3 3 3 3 2 3 3 2 1 1 1 2 1 2 2 1 2 2 2 3 3 3 4 5 5 5 5 5 5 5 5 11
8 8 7 7 7 6 6 6 6 6 4 4 4 3 3 2 2 1 1 1 1 1 1 1 2 3 4 4 4 4 4 3 3 3 3 3 4 3 2 1 1 1 2 2 3 3 2 2 3 3 4 4 5 5 5 5 5 5 5 5 6 9
9 9 8 7 7 6 6 6 6 5 5 5 4 3 3 2 2 1 1 1 1 1 1 1 2 3 3 4 4 4 3 3 3 3 3 4 3 4 3 2 2 2 2 2 2 3 2 2 3 4 4 5 5 5 6 5 5 5 6 5 6 7
9 8 8 7 6 6 6 6 5 5 4 5 4 3 3 2 2 2 1 1 1 1 2 3 3 2 4 4 3 4 4 4 5 4 4 5 3 3 4 4 3 3 3 3 3 2 3 3 4 4 4 5 5 6 5 6 5 5 5 5 6 6
8 8 7 7 6 6 6 6 5 4 4 4 4 3 3 2 2 2 2 1 1 2 2 3 3 4 3 3 3 3 4 4 5 5 5 5 4 4 5 5 5 5 5 5 4 3 4 4 4 5 5 5 5 6 6 6 6 6 6 6 6 7
8 8 7 6 6 5 5 5 5 4 4 3 3 2 2 2 2 2 2 2 2 3 3 3 4 4 4 4 4 4 3 3 4 4 5 5 5 5 4 5 6 5 6 6 6 4 4 5 5 5 5 6 6 6 6 6 6 7 7 7 6 6
9 8 7 7 6 5 5 5 5 4 4 3 3 3 2 2 2 2 2 3 3 3 3 3 4 4 5 5 4 4 4 4 4 4 4 5 6 5 4 4 4 5 5 5 6 7 5 5 6 6 5 5 5 6 6 6 5 6 7 7 6 7
7 7 7 6 6 5 5 5 5 4 4 4 3 2 2 2 2 2 3 3 3 3 3 3 4 4 4 5 5 5 5 5 4 5 5 5 5 5 5 5 4 4 6 6 6 6 6 7 6 5 5 5 5 5 4 5 5 5 6 7 6 7
7 7 7 6 6 6 6 5 5 4 4 3 3 2 2 2 3 3 3 3 2 2 2 3 3 3 4 4 4 4 4 4 4 4 4 4 5 6 5 5 4 4 5 6 6 6 7 7 7 8 7 6 5 5 4 4 4 5 5 6 6 6
7 7 6 6 6 6 6 4 4 4 3 3 2 1 2 2 2 2 2 2 2 2 3 3 3 3 3 4 4 4 4 4 4 4 5 5 5 5 4 5 5 5 6 7 7 6 5 7 7 8 7 7 7 6 5 4 5 6 5 5 6 6
8 8 7 7 6 6 5 4 4 3 3 3 2 1 1 1 1 2 2 3 3 3 4 3 3 3 3 3 3 4 4 4 4 5 5 5 5 4 5 5 5 6 6 6 6 8 7 7 7 8 8 8 7 7 8 7 6 5 5 6 6 6
8 7 7 6 6 5 4 4 3 3 4 2 1 0 0 1 2 2 3 3 3 3 3 3 3 2 3 3 4 4 4 5 5 5 5 5 5 6 6 6 6 5 5 6 6 7 8 8 7 7 8 8 8 7 9 8 7 7 6 6 6 8
8 7 7 6 6 5 5 4 3 3 2 1 0 1 1 1 1 2 2 3 3 2 3 3 3 3 3 4 4 4 4 5 5 5 5 6 6 6 6 7 7 7 6 6 7 7 7 7 8 8 9 9 8 8 8 9 9 8 8 9 9 9
8 7 7 7 6 5 4 4 4 2 2 0 1 1 1 2 2 2 2 2 2 3 3 3 3 3 4 4 4 4 4 5 5 5 6 6 6 5 7 8 9 9 9 7 7 6 7 7 8 9 10 10 9 8 9 8 9 10 9 10 10 8
8 8 7 7 6 5 4 4 2 1 1 1 0 1 2 1 1 2 2 2 3 3 3 3 3 3 3 3 4 4 4 4 4 5 5 6 7 8 8 8 8 8 10 11 9 7 8 7 8 8 7 9 10 10 9 9 10 9 10 9 9 9
7 7 7 7 6 5 4 3 3 3 1 1 1 2 2 2 3 3 3 2 2 2 2 2 2 2 3 3 4 4 4 4 4 4 5 6 7 7 8 7 7 7 6 7 8 6 6 4 6 7 8 8 8 7 9 9 9 10 10 10 9 9
6 7 6 6 6 5 3 2 2 2 2 3 2 2 3 3 3 3 3 3 2 3 3 3 3 3 3 3 3 4 4 4 5 4 5 6 6 7 7 8 8 7 7 5 7 6 7 7 8 6 8 8 9 8 6 7 9 11 10 10 9 11
6 6 6 6 5 4 4 4 3 3 2 3 3 3 3 3 3 3 4 4 4 4 4 4 4 3 2 3 3 4 4 4 5 5 5 6 6 8 8 8 7 7 7 9 7 6 7 8 8 8 6 6 3 4 10 8 7 7 10 11 11 11
5 5 5 5 5 5 5 5 4 4 4 4 3 4 4 3 3 3 4 5 5 5 5 5 4 4 3 3 3 3 4 4 5 5 5 6 7 8 9 9 10 9 8 7 10 9 9 7 9 9 9 5 4 4 9 8 6 7 6 8 11 12
4 4 5 5 5 5 4 4 5 5 5 5 5 3 3 4 3 3 4 4 5 5 6 5 5 5 5 5 5 5 5 5 5 5 5 6 6 7 8 9 9 9 11 10 9 8 10 7 8 9 11 10 5 8 6 1 2 5 4 6 7 9
5 6 6 6 5 5 4 4 5 4 3 4 5 4 4 3 2 2 3 4 4 5 6 6 6 6 6 5 5 5 5 5 5 5 5 6 7 8 9 9 9 9 10 9 9 10 11 10 8 8 9 9 11 11 10 8 9 6 11 6 7 8
7 5 4 4 4 3 6 6 6 5 4 4 5 6 5 3 2 3 4 4 4 5 6 6 6 7 7 7 6 6 6 5 6 5 6 6 6 7 8 8 9 11 10 9 9 9 11 10 8 7 3 6 4 7 14 11 10 10 9 10 9 7
7 5 5 5 5 4 4 5 5 5 5 4 4 4 3 2 3 3 4 4 5 5 6 7 7 8 8 8 7 6 6 7 7 7 6 6 6 7 8 8 8 8 10 9 8 9 10 10 8 10 8 7 5 6 11 13 9 8 8 9 11 11
7 5 5 6 6 7 6 5 6 5 6 4 3 3 3 4 3 3 5 6 6 7 7 7 7 8 9 9 8 7 8 9 8 7 7 7 8 8 9 9 9 10 10 10 7 9 9 9 9 8 8 8 8 6 4 5 5 10 10 12 13 11
7 6 6 6 7 7 6 5 5 5 5 5 5 4 4 4 4 5 6 8 8 7 7 8 9 8 8 9 9 9 9 9 8 8 8 9 9 9 10 10 10 12 11 9 7 9 9 9 8 9 9 7 7 8 7 5 5 6 7 8 8 11
7 6 6 6 7 6 6 5 5 6 6 5 5 5 6 6 7 7 8 8 8 8 8 7 8 8 9 10 9 9 9 9 9 9 9 9 9 10 9 9 9 9 8 10 9 9 9 9 9 6 9 6 7 7 7 7 5 6 7 9 9 10
8 6 6 6 7 6 5 5 6 5 6 6 7 7 7 8 8 8 8 8 8 7 7 7 9 9 8 10 9 9 10 9 8 8 9 9 9 10 10 10 9 10 9 10 8 10 9 10 8 8 7 6 6 7 8 6 6 7 7 8 10 11
8 6 6 6 7 7 6 6 5 6 6 7 8 8 8 8 8 7 7 8 7 7 7 8 9 8 8 8 7 7 7 7 8 8 9 9 9 9 9 9 11 10 10 9 9 10 9 10 8 8 7 8 8 8 8 7 7 6 8 8 8 10
9 7 6 7 6 7 6 6 7 8 8 8 8 8 8 7 7 7 7 7 7 7 7 7 7 6 8 8 8 8 9 9 9 9 9 8 8 8 8 7 8 10 9 9 10 10 8 9 9 10 9 7 8 7 7 8 7 8 8 9 10 9
8 7 7 7 6 6 7 7 9 9 9 9 7 7 7 7 7 7 7 6 7 6 6 6 6 7 7 8 8 9 9 10 10 9 8 8 9 8 9 8 7 9 10 8 9 10 8 8 9 10 10 10 8 8 7 7 6 8 9 9 9 8
8 8 7 7 7 7 8 9 10 9 9 10 9 9 8 8 7 6 6 7 7 6 6 6 6 7 8 8 8 9 9 9 9 9 9 9 9 9 9 8 8 9 9 9 8 9 9 8 9 9 9 10 8 8 7 8 6 6 7 8 9 9
Wind_Direction
141 137 136 135 138 137 135 137 131 131 125 123 123 128 132 132 136 126 123 113 116 115 105 99 97 68 99 80 110 117 99 93 55 60 64 73 78 74 76 77 80 86 92 87 79 65 55 97 130 149 157 164 163 181 185 189 186 188 201 166 183 160
136 136 135 135 139 141 139 141 135 139 142 131 128 129 134 135 135 125 113 126 112 99 94 99 75 62 35 46 86 52 44 92 76 34 47 47 55 60 65 62 65 75 83 87 59 145 120 112 138 152 162 166 188 201 183 192 197 190 198 199 196 141
136 138 138 139 143 141 139 137 137 142 139 141 141 142 142 137 133 110 112 101 107 104 87 66 56 2 360 77 39 18 348 18 38 35 24 38 38 35 47 52 57 65 74 104 174 129 150 143 149 163 167 184 211 203 189 202 205 207 199 193 221 148
139 139 142 143 146 146 145 144 144 145 144 145 144 153 144 136 121 114 119 113 99 85 76 49 24 355 23 31 63 126 3 349 46 36 18 347 9 35 3 85 61 68 149 140 96 186 182 156 155 177 187 195 203 195 200 200 218 215 214 188 222 164
142 143 145 147 149 152 149 147 149 147 142 139 140 141 137 126 109 113 107 99 81 68 56 41 11 30 20 13 349 338 301 341 352 358 1 2 345 349 334 354 16 312 25 69 69 25 276 184 164 178 195 207 202 198 205 211 222 224 214 201 207 180
144 146 149 149 150 144 144 146 148 149 150 151 149 140 134 134 131 126 125 143 153 165 223 104 104 29 17 9 351 355 345 340 311 318 329 344 355 339 335 331 334 342 350 343 96 96 284 275 218 182 187 205 216 211 212 215 217 221 223 217 201 195
146 149 150 149 149 146 147 142 142 151 154 156 154 155 148 148 149 145 143 147 169 205 236 306 331 353 354 346 351 347 353 345 330 324 322 313 326 321 312 326 333 331 324 291 286 203 193 215 259 243 204 202 216 224 224 222 220 223 225 221 214 197
149 154 154 151 151 149 144 143 144 148 158 154 161 156 155 149 151 165 182 167 122 321 315 311 328 326 343 337 342 339 331 324 316 320 319 304 318 330 321 312 303 295 286 296 296 283 257 195 202 239 240 218 210 223 229 229 228 230 228 225 228 200
154 157 157 155 158 150 149 151 151 153 152 159 152 156 154 156 201 195 217 254 209 226 255 275 303 318 313 313 313 314 306 298 291 294 300 300 298 307 307 307 312 312 309 298 283 278 269 229 206 214 233 233 223 221 223 226 230 231 234 235 228 218
162 162 164 166 161 151 154 159 157 154 160 161 151 167 172 191 210 235 219 219 227 271 287 312 307 285 296 305 295 298 299 302 305 303 293 298 308 302 309 308 303 290 288 278 277 269 274 253 231 213 226 244 232 231 223 221 216 224 229 224 225 225
167 167 167 171 162 151 153 154 159 153 167 161 150 167 180 193 223 244 258 251 239 237 256 266 287 304 302 305 304 305 312 315 310 316 312 307 318 313 308 303 300 303 298 297 287 280 267 270 265 243 226 241 248 245 236 224 221 215 218 223 225 227
171 170 164 162 155 153 152 155 158 162 171 166 165 175 182 206 229 242 247 249 250 259 279 291 303 313 312 310 311 317 316 317 320 321 319 316 311 313 300 299 299 295 292 285 283 274 268 266 266 262 240 241 235 244 241 229 224 217 218 221 221 223
173 166 164 155 152 152 153 156 162 170 169 170 174 168 188 206 219 227 236 248 260 277 297 310 317 317 315 315 320 324 328 327 332 325 310 310 309 302 289 286 300 306 291 286 283 281 273 267 265 264 259 256 246 243 248 234 221 218 219 212 211 218
167 164 161 155 152 156 160 163 167 167 164 159 166 171 190 207 219 225 244 254 270 304 317 327 322 319 320 321 327 330 333 334 343 334 320 318 313 307 306 303 292 296 299 294 285 287 287 278 271 267 267 270 265 267 260 243 223 223 218 219 210 213
164 159 155 155 155 157 166 167 164 161 152 163 158 187 182 209 220 236 246 266 301 321 321 317 318 317 321 320 321 323 325 330 328 322 318 316 310 308 305 304 297 293 295 294 291 286 286 287 287 279 275 268 264 260 249 247 225 227 225 226 216 212
159 151 149 152 155 160 167 166 158 152 155 168 181 209 213 229 248 248 261 302 318 313 309 306 305 307 307 311 314 313 316 314 319 317 316 315 313 308 309 307 302 296 298 293 291 287 287 287 283 278 271 267 269 265 262 247 230 221 223 223 221 212
154 148 149 152 157 160 163 161 155 144 157 159 187 206 211 221 258 298 328 323 322 306 298 292 286 288 292 305 307 307 310 313 314 310 306 307 307 310 309 304 303 301 283 284 285 292 287 285 287 283 276 272 269 266 263 258 242 229 212 222 221 212
155 155 153 153 155 157 154 143 139 143 150 158 162 231 257 265 298 324 324 322 312 296 283 278 284 300 306 303 300 300 307 310 308 303 299 302 300 303 302 299 294 290 282 278 283 286 289 289 282 282 280 273 270 265 267 260 255 247 234 221 219 218
157 158 152 148 147 140 133 122 123 132 129 124 213 319 349 314 343 333 324 312 296 286 304 320 325 310 294 300 300 306 312 316 311 306 303 300 298 298 296 295 292 287 279 276 277 278 287 289 286 284 280 278 271 260 263 264 260 254 246 242 240 235
159 158 151 144 144 142 137 142 138 139 151 123 274 267 343 344 353 344 325 307 319 325 337 332 318 294 286 292 301 312 318 318 312 305 301 301 300 301 305 303 296 294 290 276 253 260 264 273 277 273 277 276 271 266 260 255 253 250 249 248 246 239
157 157 154 151 152 147 147 138 128 137 48 161 99 71 48 48 45 49 18 1 360 355 343 329 311 295 300 304 306 316 318 310 309 305 304 301 304 307 305 301 299 301 298 292 281 262 250 256 265 271 261 265 272 267 255 251 247 245 244 246 247 245
155 163 158 158 153 160 168 138 128 124 123 99 112 90 81 69 41 40 35 26 12 352 344 333 329 324 316 316 318 317 308 306 315 305 296 294 290 287 292 292 295 295 278 288 291 281 266 238 250 257 278 283 269 248 254 257 245 245 245 246 245 238
156 158 159 157 161 158 154 75 68 89 101 108 75 53 47 45 39 43 45 42 28 20 13 7 357 346 333 334 327 317 311 309 309 303 288 288 295 296 290 284 285 284 289 261 267 260 251 230 262 256 262 277 277 288 244 234 245 245 241 242 237 235
156 159 163 164 155 116 114 110 90 100 93 59 86 82 89 64 67 77 69 61 58 49 48 42 33 21 5 349 333 321 318 314 311 307 303 297 292 289 293 299 288 281 284 286 273 265 240 244 242 252 264 245 266 265 285 265 251 241 237 237 232 234
160 163 155 152 142 129 126 125 121 113 118 112 110 101 113 86 70 78 85 71 59 55 58 56 44 36 24 9 4 348 331 321 313 310 301 298 299 302 302 300 301 298 280 279 288 286 277 234 229 224 251 260 242 238 255 280 290 269 220 233 234 235
138 144 140 135 135 147 135 134 147 151 148 145 135 124 96 97 95 77 71 79 65 51 48 45 37 28 24 15 7 4 350 341 336 330 321 313 308 304 300 298 297 297 298 292 286 291 288 274 250 240 234 236 246 276 285 262 292 279 157 230 238 232
138 130 125 129 144 140 134 144 145 137 113 117 115 103 99 101 105 104 83 70 63 53 43 40 33 27 23 17 15 15 10 2 344 342 335 324 318 312 306 302 300 295 292 292 289 281 279 283 279 250 247 237 231 232 248 252 256 265 275 241 216 230
120 110 104 124 126 116 131 133 128 113 108 101 98 112 116 112 106 93 71 60 57 50 42 35 27 25 20 17 16 14 9 5 356 353 342 332 321 317 312 311 309 304 297 291 291 290 292 288 281 283 225 275 246 258 263 252 239 252 271 279 264 231
110 97 94 102 113 109 110 113 106 111 108 104 109 108 114 98 79 64 58 54 49 44 37 33 28 25 21 18 17 11 9 6 356 351 336 325 321 318 320 316 312 305 300 296 292 287 281 284 285 288 291 275 252 225 244 244 235 240 247 258 263 259
92 88 94 96 98 99 101 101 100 103 105 104 108 107 78 62 54 39 40 39 36 34 24 23 22 24 21 14 11 9 8 4 352 343 335 333 333 334 335 327 314 306 302 302 294 292 298 300 289 281 282 289 285 281 267 243 234 245 243 241 260 269
95 95 90 89 91 89 86 90 99 93 91 91 83 68 70 60 46 37 34 33 31 27 22 21 17 18 20 9 10 5 3 358 351 350 345 345 345 340 335 330 322 317 313 306 297 299 296 297 295 296 285 273 276 284 286 277 247 238 241 253 253 253
91 93 94 90 89 89 92 89 95 96 92 85 80 78 72 59 43 42 38 32 26 19 19 20 21 13 15 11 6 5 2 357 360 358 354 349 346 338 334 334 330 331 327 323 314 309 309 305 310 300 297 292 284 271 269 273 270 251 230 237 238 251
96 89 88 93 91 87 89 95 99 97 94 82 75 70 58 49 42 41 33 30 24 21 19 16 20 11 16 8 6 7 5 3 358 357 349 346 341 337 340 336 336 334 332 329 323 320 318 317 313 308 308 289 276 277 280 269 255 265 266 259 257 261
101 93 92 87 89 93 93 92 89 85 80 72 66 59 54 48 49 45 37 33 24 25 19 13 16 12 11 3 4 360 356 358 356 352 352 349 344 338 339 337 338 340 339 338 335 339 327 328 320 310 302 302 294 291 289 276 268 261 263 259 255 256
111 103 98 99 98 95 91 86 82 77 71 69 68 68 64 59 56 51 44 41 28 27 22 16 20 1 8 4 2 357 358 0 359 353 352 349 345 340 336 333 336 345 346 340 338 337 342 340 341 339 332 323 312 304 297 292 270 265 253 257 263 267
107 104 100 100 99 98 90 80 74 72 68 67 68 66 65 63 60 56 49 35 30 25 17 8 11 4 6 6 6 360 1 2 0 357 353 348 342 341 344 344 342 351 356 350 341 342 346 341 346 343 337 339 335 333 320 302 277 270 267 258 256 252
102 98 99 103 102 90 82 75 69 68 70 74 70 69 68 61 55 52 42 31 32 29 21 14 8 9 6 10 11 8 6 4 3 358 352 348 345 345 345 350 353 349 354 352 349 347 355 354 355 345 344 345 348 337 336 327 308 287 280 277 262 252